This demonstration page uses our WeatherBlox Daily Observations layout. Learn more.

Left ArrowRight Arrow

34.74481, -87.66753

Hourly Observations for May 9, 2017

Temp ( °F °C ) Dew Point ( °F °C ) Humidity (%) Winds ( mph kmh ) Pressure ( in mb ) Visibility ( mi km ) Precip ( " mm )
12:53 am 00:53 Clear 60 15.6 55 12.8 84 84 Calm 30.04 1017 10 16 0.00 0.00
1:53 am 01:53 Clear 59 15 55 12.8 87 87 Calm 30.02 1017 10 16 0.00 0.00
2:53 am 02:53 Clear 56 13.3 53 11.7 90 90 Calm 30.02 1017 9 14 0.00 0.00
3:53 am 03:53 Clear 56 13.3 53 11.7 90 90 Calm 30.03 1017 10 16 0.00 0.00
4:53 am 04:53 Clear 54 12.2 52 11.1 93 93 Calm 30.03 1017 9 14 0.00 0.00
5:53 am 05:53 Sunny with Mist and Fog 54 12.2 52 11.1 93 93 Calm 30.04 1017 6 10 0.00 0.00
6:53 am 06:53 Sunny 59 15 55 12.8 87 87 Calm 30.06 1018 10 16 0.00 0.00
7:53 am 07:53 Sunny 66 18.9 57 13.9 73 73 Calm 30.08 1019 10 16 0.00 0.00
8:53 am 08:53 Sunny 72 22.2 56 13.3 57 57 WSW 5 7 30.09 1019 10 16 0.00 0.00
9:53 am 09:53 Sunny 77 25 56 13.3 48 48 WSW 14 22 30.09 1019 10 16 0.00 0.00
10:53 am 10:53 Sunny 79 26.1 60 15.6 52 52 WNW 10 17 30.09 1019 10 16 0.00 0.00
11:53 am 11:53 Sunny 81 27.2 60 15.6 49 49 W 12 19 30.08 1019 10 16 0.00 0.00
12:53 pm 12:53 Mostly Sunny 82 27.8 59 15 46 46 W 17 28 30.07 1018 10 16 0.00 0.00
1:53 pm 13:53 Mostly Sunny 83 28.3 59 15 44 44 W 12 19 30.05 1018 10 16 0.00 0.00
2:53 pm 14:53 Mostly Sunny 84 28.9 60 15.6 44 44 WSW 12 19 30.03 1017 10 16 0.00 0.00
3:53 pm 15:53 Sunny 84 28.9 60 15.6 44 44 WSW 7 11 30.01 1016 10 16 0.00 0.00
4:53 pm 16:53 Sunny 83 28.3 59 15 44 44 WSW 12 19 29.99 1016 10 16 0.00 0.00
5:53 pm 17:53 Sunny 82 27.8 58 14.4 44 44 WSW 8 13 29.98 1015 10 16 0.00 0.00
6:53 pm 18:53 Sunny 79 26.1 59 15 50 50 WSW 7 11 29.98 1015 10 16 0.00 0.00
7:53 pm 19:53 Clear 77 25 59 15 54 54 SW 3 6 29.98 1015 10 16 0.00 0.00
8:53 pm 20:53 Clear 68 20 60 15.6 76 76 S 3 6 29.99 1016 10 16 0.00 0.00
9:53 pm 21:53 Clear 66 18.9 60 15.6 81 81 Calm 30.00 1016 10 16 0.00 0.00
10:53 pm 22:53 Clear 66 18.9 59 15 78 78 Calm 30.01 1016 10 16 0.00 0.00
11:53 pm 23:53 Clear 64 17.8 59 15 84 84 Calm 30.00 1016 10 16 0.00 0.00

Powered by AerisWeather